[[{"header":{"parameterUnit":"m.s-1","parameterCategory":1,"la1":30.2991,"la2":30.254,"lo1":-89.0895,"lo2":-89.0444,"dy":0.0017,"dx":0.0017,"nx":28,"ny":28,"refTime":"2023-09-11T21:00:00:Z","depth":0,"parameterNumber":2,"parameterNumberName":"U-component_of_WINDS"},"data":[0,0,0,0,0,0,0,0,0,0,0,0,0,0,0,0,0,0,0,0,0,0,0,0,0,0,0,0,0,0,0,0,0,0,0,0,0,0,0,0,0,0,0,0,0,0,0,0,0,0,0,0,0,0,0,0,0,0,-0.8465,-0.8465,0,-0.8428,-0.8428,-0.8427,-0.8374,-0.8373,-0.8372,-0.8371,-0.8335,-0.8334,-0.8334,0,0,0,0,0,0,0,0,0,0,0,0,0,-0.849,-0.849,-0.8465,-0.8465,-0.8464,-0.8428,-0.8428,-0.8427,-0.8374,-0.8373,-0.8371,-0.837,-0.8335,-0.8334,-0.8334,0,0,0,0,0,0,0,0,0,0,0,0,0,-0.8469,-0.849,-0.8465,-0.8433,-0.843,-0.8428,-0.8428,-0.8427,-0.8374,-0.8373,-0.8371,-0.837,-0.8335,-0.8334,-0.8334,-0.8362,0,0,-0.8334,-0.8334,0,0,0,0,0,0,0,0,-0.847,-0.8468,-0.8438,-0.8435,-0.8432,-0.8404,-0.8423,-0.8405,-0.8374,-0.8395,-0.8371,-0.8369,-0.8359,-0.8357,-0.8353,-0.836,-0.8358,-0.8334,-0.8334,-0.8334,-0.8334,0,0,0,0,0,0,0,-0.8472,-0.8469,-0.845,-0.8438,-0.8434,-0.8421,-0.8416,-0.842,-0.8385,-0.8393,-0.8389,-0.8386,-0.8357,-0.8353,-0.8352,-0.8358,-0.8334,-0.8334,-0.8334,-0.8334,-0.8385,-0.8387,0,0,0,0,0,0,-0.8478,-0.8471,-0.8452,-0.8449,-0.8448,-0.8422,-0.8416,-0.8414,-0.8385,-0.8379,-0.8387,-0.8383,-0.8354,-0.8352,-0.835,-0.8381,-0.8334,-0.8334,-0.8334,-0.8384,-0.8386,-0.8387,0,0,0,0,0,0,-0.8479,-0.8477,-0.8453,-0.8459,-0.8455,-0.8423,-0.8421,-0.8414,-0.8411,-0.838,-0.8374,-0.8389,-0.8353,-0.835,-0.8359,-0.8379,-0.8334,-0.8333,-0.8382,-0.8384,-0.8386,-0.8442,0,0,0,0,0,0,-0.848,-0.8477,-0.8487,-0.846,-0.8455,-0.8463,-0.8422,-0.8415,-0.841,-0.8405,-0.8381,-0.8376,-0.8352,-0.836,-0.8359,-0.8378,-0.8333,-0.838,-0.8383,-0.8386,-0.8438,-0.8446,-0.8452,0,0,0,0,0,-0.8481,-0.8505,-0.8488,-0.8486,-0.8467,-0.8464,-0.8461,-0.8433,-0.8412,-0.8422,-0.8402,-0.8376,-0.8376,-0.8361,-0.836,-0.8379,-0.8379,-0.8382,-0.8386,-0.8435,-0.8444,-0.8452,0,0,0,0,0,0,-0.8536,-0.85,-0.8482,-0.8497,-0.8484,-0.8455,-0.8467,-0.8443,-0.8436,-0.8432,-0.8396,-0.8392,-0.8405,-0.8392,-0.8376,-0.8404,-0.8374,-0.8377,-0.8412,-0.842,-0.8427,-0.8431,-0.8333,0,0,0,0,0,-0.855,-0.855,-0.8519,-0.8536,-0.853,-0.85,-0.8497,-0.8476,-0.8461,-0.8456,-0.8437,-0.8424,-0.842,-0.8419,-0.8415,-0.8435,-0.843,-0.8448,-0.8455,-0.8461,-0.8464,-0.8475,-0.8483,-0.8398,-0.8398,-0.8398,0,0,-0.8579,-0.856,-0.8562,-0.8547,-0.8534,-0.8536,-0.8495,-0.8499,-0.85,-0.8456,-0.8464,-0.8449,-0.8432,-0.8447,-0.8453,-0.8437,-0.8486,-0.8465,-0.847,-0.847,-0.8479,-0.8487,-0.8495,-0.84,-0.84,-0.84,0,0,-0.8633,-0.8618,-0.8631,-0.8618,-0.8599,-0.8578,-0.8581,-0.8556,-0.8544,-0.8551,-0.8518,-0.8519,-0.8514,-0.8503,-0.8497,-0.8546,-0.8522,-0.8545,-0.8583,-0.8593,-0.86,-0.8606,-0.8624,-0.8631,-0.8549,-0.8549,-0.8549,0,-0.8672,-0.8673,-0.864,-0.8646,-0.864,-0.8599,-0.8612,-0.8602,-0.8583,-0.858,-0.8562,-0.8555,-0.8541,-0.8553,-0.8565,-0.8561,-0.8564,-0.8549,-0.8602,-0.8607,-0.8612,-0.8629,-0.8636,-0.8552,-0.8552,-0.8551,-0.8551,0,-0.8722,-0.8723,-0.8736,-0.8718,-0.8713,-0.8722,-0.8691,-0.869,-0.8669,-0.8651,-0.8658,-0.8639,-0.863,-0.8631,-0.861,-0.864,-0.8631,-0.8608,-0.8577,-0.8624,-0.864,-0.8646,-0.8556,-0.8555,-0.8554,-0.8554,0,0,-0.8812,-0.8775,-0.878,-0.8771,-0.8747,-0.8747,-0.8754,-0.8745,-0.8745,-0.8733,-0.8738,-0.8735,-0.8713,-0.8706,-0.8684,-0.8693,-0.8734,-0.8669,-0.8668,-0.8683,-0.8767,-0.8786,-0.8794,-0.8717,-0.8718,-0.8719,-0.8769,0,-0.8863,-0.8873,-0.8843,-0.8861,-0.8862,-0.8823,-0.8829,-0.8815,-0.8797,-0.8795,-0.8775,-0.8774,-0.8745,-0.874,-0.8748,-0.8728,-0.8751,-0.8724,-0.8724,-0.8724,-0.8731,-0.8802,-0.8822,-0.887,-0.8775,-0.8776,-0.8777,0,-0.8924,-0.8914,-0.8932,-0.8906,-0.8905,-0.8911,-0.89,-0.8899,-0.8882,-0.8868,-0.886,-0.8834,-0.8839,-0.8808,-0.8816,-0.8798,-0.8796,-0.8786,-0.8787,-0.8788,-0.8755,-0.8806,-0.8885,-0.8893,-0.8786,-0.8785,-0.8784,0,-0.899,-0.8981,-0.899,-0.8984,-0.8953,-0.8959,-0.8946,-0.8927,-0.8924,-0.8914,-0.8911,-0.8902,-0.8898,-0.8892,-0.8864,-0.8844,-0.8875,-0.8842,-0.8865,-0.8866,-0.8875,-0.8875,-0.8956,-0.8871,-0.8871,-0.887,-0.887,0,-0.9051,-0.9064,-0.902,-0.9026,-0.9039,-0.9004,-0.9018,-0.9002,-0.8985,-0.8988,-0.8953,-0.8956,-0.8918,-0.8917,-0.8895,-0.8905,-0.8903,-0.8893,-0.8888,-0.8897,-0.8899,-0.8897,-0.8894,-0.8872,-0.8872,-0.8871,-0.8871,0,-0.9128,-0.9098,-0.9107,-0.9076,-0.9069,-0.908,-0.9055,-0.9059,-0.9038,-0.9042,-0.9041,-0.9009,-0.9006,-0.8977,-0.8968,-0.8953,-0.8972,-0.8959,-0.8978,-0.8975,-0.9,-0.8999,-0.9084,-0.9094,-0.9001,-0.9002,-0.9003,0,-0.917,-0.9178,-0.9149,-0.9148,-0.9137,-0.9136,-0.9131,-0.9097,-0.9094,-0.9074,-0.9081,-0.9075,-0.9069,-0.9066,-0.9042,-0.9035,-0.9023,-0.9053,-0.9022,-0.9031,-0.9025,-0.9026,-0.9027,-0.9061,-0.9062,-0.9063,-0.9063,0,-0.9248,-0.9232,-0.9227,-0.9217,-0.9213,-0.9203,-0.9191,-0.9192,-0.9154,-0.9153,-0.9149,-0.9144,-0.9134,-0.9129,-0.9117,-0.9104,-0.9078,-0.9073,-0.9078,-0.909,-0.9101,-0.9097,-0.8998,-0.9072,-0.9071,-0.907,-0.907,-0.907,-0.9309,-0.9315,-0.9296,-0.9291,-0.9278,-0.9268,-0.9271,-0.925,-0.9246,-0.9235,-0.9214,-0.9214,-0.9196,-0.9177,-0.9167,-0.9166,-0.915,-0.9158,-0.916,-0.9163,-0.9169,-0.9099,-0.9164,-0.9163,-0.9163,-0.9163,-0.9163,0,-0.9387,-0.9372,-0.9368,-0.9352,-0.9348,-0.9322,-0.9307,-0.9307,-0.9306,-0.9291,-0.9285,-0.9281,-0.9275,-0.9251,-0.9242,-0.9247,-0.9235,-0.9246,-0.9246,-0.9244,-0.9182,-0.9179,-0.9256,-0.9256,-0.9256,-0.9256,-0.9256,-0.9256,-0.9427,-0.9436,-0.9419,-0.9421,-0.9406,-0.9405,-0.9399,-0.9389,-0.9377,-0.9373,-0.9368,-0.9352,-0.9333,-0.9323,-0.9317,-0.9309,-0.9309,-0.9325,-0.9314,-0.9257,-0.9248,-0.924,-0.9237,-0.9325,-0.9325,-0.9376,-0.9376,-0.9377]},{"header":{"parameterUnit":"m.s-1","parameterCategory":1,"la1":30.2991,"la2":30.254,"lo1":-89.0895,"lo2":-89.0444,"dy":0.0017,"dx":0.0017,"nx":28,"ny":28,"refTime":"2023-09-11T21:00:00:Z","depth":0,"parameterNumber":3,"parameterNumberName":"V-component_of_WINDS"},"data":[0,0,0,0,0,0,0,0,0,0,0,0,0,0,0,0,0,0,0,0,0,0,0,0,0,0,0,0,0,0,0,0,0,0,0,0,0,0,0,0,0,0,0,0,0,0,0,0,0,0,0,0,0,0,0,0,0,0,-0.8527,-0.8528,0,-0.8567,-0.8567,-0.8568,-0.8544,-0.8542,-0.8541,-0.854,-0.858,-0.8582,-0.8584,0,0,0,0,0,0,0,0,0,0,0,0,0,-0.8428,-0.843,-0.8527,-0.8528,-0.8528,-0.8567,-0.8567,-0.8568,-0.8544,-0.8542,-0.8541,-0.854,-0.8579,-0.8581,-0.8584,0,0,0,0,0,0,0,0,0,0,0,0,0,-0.847,-0.8431,-0.8527,-0.8521,-0.8521,-0.8567,-0.8568,-0.8568,-0.8544,-0.8542,-0.8541,-0.8539,-0.8578,-0.8581,-0.8584,-0.8638,0,0,-0.8594,-0.8595,0,0,0,0,0,0,0,0,-0.8468,-0.8474,-0.8521,-0.8521,-0.8521,-0.8549,-0.8547,-0.8592,-0.8545,-0.8535,-0.854,-0.8538,-0.8571,-0.8574,-0.8585,-0.864,-0.8642,-0.8594,-0.8596,-0.8598,-0.8598,0,0,0,0,0,0,0,-0.8465,-0.8472,-0.8543,-0.8522,-0.8522,-0.8515,-0.8519,-0.8555,-0.8562,-0.8536,-0.8534,-0.8539,-0.857,-0.8582,-0.8586,-0.8643,-0.8594,-0.8597,-0.8599,-0.86,-0.8744,-0.8746,0,0,0,0,0,0,-0.8463,-0.847,-0.8542,-0.8544,-0.849,-0.8519,-0.8523,-0.8541,-0.8562,-0.8563,-0.8541,-0.8538,-0.8578,-0.8583,-0.8587,-0.8653,-0.8597,-0.86,-0.8602,-0.8742,-0.8745,-0.8747,0,0,0,0,0,0,-0.8461,-0.8469,-0.854,-0.8506,-0.8515,-0.8522,-0.8543,-0.8543,-0.8555,-0.8565,-0.8566,-0.8552,-0.8577,-0.8583,-0.8626,-0.8654,-0.8602,-0.8605,-0.874,-0.8743,-0.8746,-0.8784,0,0,0,0,0,0,-0.8458,-0.8469,-0.849,-0.8507,-0.8517,-0.8579,-0.8545,-0.8545,-0.8561,-0.8558,-0.8576,-0.8578,-0.8576,-0.8622,-0.8629,-0.8657,-0.8607,-0.8737,-0.8741,-0.8745,-0.878,-0.8787,-0.8794,0,0,0,0,0,-0.8454,-0.8498,-0.8491,-0.85,-0.8543,-0.858,-0.8586,-0.8583,-0.8564,-0.8585,-0.8591,-0.8577,-0.8649,-0.8626,-0.8635,-0.8664,-0.8736,-0.874,-0.8744,-0.8777,-0.8786,-0.8794,0,0,0,0,0,0,-0.8483,-0.8501,-0.8492,-0.8543,-0.8561,-0.8576,-0.8603,-0.8593,-0.8616,-0.8612,-0.8607,-0.8611,-0.8657,-0.8664,-0.8638,-0.8718,-0.8689,-0.8696,-0.8711,-0.872,-0.8727,-0.8724,-0.861,0,0,0,0,0,-0.8496,-0.8525,-0.8538,-0.8582,-0.8591,-0.8595,-0.8611,-0.8608,-0.8625,-0.8632,-0.8642,-0.8659,-0.8685,-0.8703,-0.8728,-0.8781,-0.8784,-0.8805,-0.8812,-0.8817,-0.8823,-0.8852,-0.8861,-0.8761,-0.8761,-0.8761,0,0,-0.8522,-0.8535,-0.8553,-0.8588,-0.8601,-0.8631,-0.8602,-0.8634,-0.8656,-0.8637,-0.8679,-0.8686,-0.8705,-0.8753,-0.8775,-0.8761,-0.8852,-0.8823,-0.8827,-0.883,-0.8857,-0.8867,-0.8875,-0.8764,-0.8763,-0.8763,0,0,-0.8584,-0.8597,-0.8635,-0.8649,-0.8669,-0.8672,-0.8681,-0.8698,-0.8702,-0.8744,-0.873,-0.8756,-0.8802,-0.8816,-0.8829,-0.8897,-0.8885,-0.8905,-0.8942,-0.897,-0.8978,-0.8985,-0.901,-0.9019,-0.891,-0.8911,-0.8911,0,-0.8614,-0.8659,-0.8656,-0.869,-0.8706,-0.869,-0.8728,-0.8742,-0.8769,-0.878,-0.8764,-0.8821,-0.8832,-0.8884,-0.8901,-0.8912,-0.8922,-0.8903,-0.8977,-0.8984,-0.8991,-0.9014,-0.9024,-0.8913,-0.8913,-0.8912,-0.8912,0,-0.8695,-0.8726,-0.8754,-0.8782,-0.88,-0.8836,-0.8838,-0.8858,-0.8852,-0.8857,-0.8899,-0.8912,-0.894,-0.8952,-0.8947,-0.9003,-0.8994,-0.8978,-0.8949,-0.9003,-0.9025,-0.9034,-0.8916,-0.8915,-0.8915,-0.8914,0,0,-0.8777,-0.8802,-0.8813,-0.8825,-0.8847,-0.8871,-0.8906,-0.8933,-0.895,-0.8969,-0.8998,-0.9038,-0.9023,-0.9038,-0.9034,-0.9059,-0.9113,-0.9039,-0.904,-0.9053,-0.9176,-0.9188,-0.9199,-0.9105,-0.9106,-0.9108,-0.9174,0,-0.8841,-0.8904,-0.8902,-0.896,-0.8989,-0.8975,-0.9005,-0.9021,-0.9026,-0.9051,-0.9056,-0.9084,-0.9062,-0.9071,-0.9095,-0.9101,-0.9137,-0.9096,-0.9132,-0.9133,-0.9129,-0.921,-0.9224,-0.9286,-0.9183,-0.9184,-0.9185,0,-0.8925,-0.8948,-0.9009,-0.9027,-0.9039,-0.9066,-0.9092,-0.9116,-0.9133,-0.9135,-0.9152,-0.9144,-0.918,-0.915,-0.9198,-0.9171,-0.9185,-0.919,-0.9192,-0.9196,-0.9163,-0.9217,-0.9306,-0.9316,-0.9199,-0.9198,-0.9197,0,-0.898,-0.9026,-0.9069,-0.908,-0.9101,-0.9121,-0.913,-0.9146,-0.9163,-0.9185,-0.9196,-0.9221,-0.9235,-0.9254,-0.9254,-0.9232,-0.9303,-0.9273,-0.9305,-0.9306,-0.9322,-0.9321,-0.9415,-0.933,-0.933,-0.9329,-0.9329,0,-0.9053,-0.9091,-0.9094,-0.912,-0.9162,-0.9159,-0.9201,-0.9208,-0.9223,-0.925,-0.9238,-0.9264,-0.9261,-0.9287,-0.9286,-0.9327,-0.9333,-0.9335,-0.9335,-0.9337,-0.9337,-0.9347,-0.9343,-0.9332,-0.9331,-0.9331,-0.933,0,-0.9122,-0.9125,-0.9171,-0.9187,-0.9192,-0.9223,-0.9236,-0.9261,-0.9265,-0.9299,-0.9307,-0.9313,-0.9343,-0.9344,-0.9377,-0.9377,-0.9427,-0.9421,-0.9421,-0.942,-0.9453,-0.945,-0.9558,-0.9572,-0.9477,-0.9478,-0.9478,0,-0.9168,-0.9198,-0.9217,-0.9235,-0.9246,-0.9275,-0.9292,-0.929,-0.9308,-0.9331,-0.9353,-0.9382,-0.9405,-0.9452,-0.9459,-0.9485,-0.948,-0.9516,-0.9484,-0.9485,-0.9482,-0.948,-0.9483,-0.9523,-0.9524,-0.9525,-0.9525,0,-0.9251,-0.9251,-0.9277,-0.9304,-0.9325,-0.9345,-0.9364,-0.9379,-0.938,-0.9401,-0.9431,-0.9449,-0.9484,-0.9513,-0.9538,-0.9547,-0.9536,-0.9535,-0.9544,-0.9547,-0.9546,-0.9548,-0.9439,-0.9533,-0.9532,-0.9532,-0.9531,-0.9531,-0.9311,-0.9336,-0.9354,-0.9383,-0.9397,-0.9416,-0.944,-0.9447,-0.9473,-0.9502,-0.9499,-0.9533,-0.9549,-0.9582,-0.9593,-0.962,-0.9607,-0.962,-0.9624,-0.9627,-0.9631,-0.9541,-0.9624,-0.9624,-0.9624,-0.9624,-0.9623,0,-0.9393,-0.9404,-0.9431,-0.9458,-0.9481,-0.947,-0.949,-0.951,-0.9541,-0.9557,-0.958,-0.9616,-0.9643,-0.9652,-0.9679,-0.9699,-0.9694,-0.9706,-0.9705,-0.9707,-0.964,-0.963,-0.9709,-0.9709,-0.9709,-0.9709,-0.9709,-0.9709,-0.9439,-0.9481,-0.9484,-0.9533,-0.9544,-0.9578,-0.9591,-0.9607,-0.9621,-0.9661,-0.9684,-0.969,-0.9704,-0.9732,-0.9757,-0.9759,-0.9769,-0.9783,-0.9783,-0.972,-0.9712,-0.9703,-0.9694,-0.9785,-0.9785,-0.9848,-0.9848,-0.9849]}]]